Radiation Dose measured at exhaust stack monitor of Miscellaneous Solid Waste Incinerator Building/Incinerator raregas monitor
Date,Time,Incinerator Gas Monitor(cps),Wind Direction,Wind Velocity(m/s)
2022/12/23,00:00,1.6,west-northwest,10.4
2022/12/23,00:10,1.5,west,10.5
2022/12/23,00:20,1.6,west-northwest,12.5
2022/12/23,00:30,1.5,west-northwest,7.1
2022/12/23,00:40,1.6,west-northwest,6.4
2022/12/23,00:50,1.6,west-northwest,4.2
2022/12/23,01:00,1.5,west-northwest,4.5
2022/12/23,01:10,1.5,west-northwest,2.5
2022/12/23,01:20,1.6,west-northwest,6.0
2022/12/23,01:30,1.5,west-northwest,6.4
2022/12/23,01:40,1.5,west-northwest,5.0
2022/12/23,01:50,1.6,west-northwest,4.7
2022/12/23,02:00,1.5,west,3.0
2022/12/23,02:10,1.5,northwest,2.5
2022/12/23,02:20,1.6,northwest,1.7
2022/12/23,02:30,1.6,west-northwest,1.3
2022/12/23,02:40,1.5,west-southwest,3.9
2022/12/23,02:50,1.6,west-southwest,2.6
2022/12/23,03:00,1.5,west,2.8
2022/12/23,03:10,1.6,west-southwest,2.1
2022/12/23,03:20,1.6,west-southwest,4.9
2022/12/23,03:30,1.6,west,5.6
2022/12/23,03:40,1.6,west,5.8
2022/12/23,03:50,1.6,west-southwest,4.9
2022/12/23,04:00,1.5,west-southwest,5.8
2022/12/23,04:10,1.5,southwest,6.7
2022/12/23,04:20,1.5,west,5.3
2022/12/23,04:30,1.5,west,6.0
2022/12/23,04:40,1.6,west,4.9
2022/12/23,04:50,1.5,west,7.1
2022/12/23,05:00,1.6,west-northwest,3.4
2022/12/23,05:10,1.5,west,1.5
2022/12/23,05:20,1.5,northwest,1.3
2022/12/23,05:30,1.6,west,2.5
2022/12/23,05:40,1.4,west,3.0
2022/12/23,05:50,1.6,west-northwest,4.1
2022/12/23,06:00,1.5,west-northwest,3.3
2022/12/23,06:10,1.5,west-northwest,4.7
2022/12/23,06:20,1.5,west-northwest,7.5
2022/12/23,06:30,1.5,west,8.8
2022/12/23,06:40,1.5,west-northwest,9.6
2022/12/23,06:50,1.5,west-northwest,8.6
2022/12/23,07:00,1.5,west-northwest,11.1
2022/12/23,07:10,1.5,west-northwest,8.8
2022/12/23,07:20,1.5,west,7.7
2022/12/23,07:30,1.5,west-northwest,9.1
2022/12/23,07:40,1.6,west-northwest,10.0
2022/12/23,07:50,1.5,west-northwest,11.6
2022/12/23,08:00,1.5,west-northwest,9.7
2022/12/23,08:10,1.5,west,8.0
2022/12/23,08:20,1.5,west-northwest,9.1
2022/12/23,08:30,1.5,west,10.8
2022/12/23,08:40,1.6,west,9.3
2022/12/23,08:50,1.5,west,11.9
2022/12/23,09:00,1.6,west,10.8
2022/12/23,09:10,1.6,west,8.6
2022/12/23,09:20,1.6,west,10.1
2022/12/23,09:30,1.5,west,9.1
2022/12/23,09:40,1.6,west,5.3
2022/12/23,09:50,1.4,west-northwest,7.5
2022/12/23,10:00,1.5,west-southwest,6.0
2022/12/23,10:10,1.6,west,7.8
2022/12/23,10:20,1.5,west,9.3
2022/12/23,10:30,1.5,west,10.2
2022/12/23,10:40,1.6,west-southwest,10.4
2022/12/23,10:50,1.5,west-southwest,8.3
2022/12/23,11:00,1.6,west-southwest,8.6
2022/12/23,11:10,1.5,west-southwest,10.4
2022/12/23,11:20,1.5,west,15.1
2022/12/23,11:30,1.6,west-southwest,10.7
2022/12/23,11:40,1.4,west-southwest,11.3
2022/12/23,11:50,1.6,west-southwest,9.9
2022/12/23,12:00,1.5,west-southwest,9.9
2022/12/23,12:10,1.6,west-southwest,9.3
2022/12/23,12:20,1.5,west-southwest,8.5
2022/12/23,12:30,1.6,southwest,7.2
2022/12/23,12:40,1.6,west-southwest,7.1
2022/12/23,12:50,1.5,southwest,7.4
2022/12/23,13:00,1.6,southwest,5.8
2022/12/23,13:10,1.5,west-southwest,6.3
2022/12/23,13:20,1.6,west-southwest,6.1
2022/12/23,13:30,1.6,west,7.1
2022/12/23,13:40,1.5,west-southwest,6.4
2022/12/23,13:50,1.5,west-southwest,6.4
2022/12/23,14:00,1.5,west-northwest,5.8
2022/12/23,14:10,1.5,west-southwest,6.4
2022/12/23,14:20,1.6,west-southwest,5.2
2022/12/23,14:30,1.5,west-northwest,6.9
2022/12/23,14:40,1.6,west,4.5
2022/12/23,14:50,1.6,west-southwest,6.4
2022/12/23,15:00,1.5,west-southwest,5.8
2022/12/23,15:10,1.5,west-southwest,2.8
2022/12/23,15:20,1.5,west,3.8
2022/12/23,15:30,1.5,west-southwest,5.0
2022/12/23,15:40,1.5,west-southwest,4.1
2022/12/23,15:50,1.5,west-southwest,3.8
2022/12/23,16:00,1.5,southwest,3.9
2022/12/23,16:10,1.5,south-southwest,3.3
2022/12/23,16:20,1.5,southwest,4.4
2022/12/23,16:30,1.6,south-southwest,1.9
2022/12/23,16:40,1.4,south,2.2
2022/12/23,16:50,1.5,west-southwest,2.8
2022/12/23,17:00,1.6,west-southwest,5.0
2022/12/23,17:10,1.6,west-southwest,5.2
2022/12/23,17:20,1.5,southwest,4.1
2022/12/23,17:30,1.5,west-southwest,3.8
2022/12/23,17:40,1.6,west-southwest,3.8
2022/12/23,17:50,1.5,southwest,3.2
2022/12/23,18:00,1.5,southwest,4.4
2022/12/23,18:10,1.5,southwest,4.1
2022/12/23,18:20,1.6,west,7.1
2022/12/23,18:30,1.5,west,4.9
2022/12/23,18:40,1.5,west-southwest,3.0
2022/12/23,18:50,1.5,south-southwest,4.2
2022/12/23,19:00,1.5,southwest,5.0
2022/12/23,19:10,1.6,southwest,2.1
2022/12/23,19:20,1.6,south-southwest,2.4
2022/12/23,19:30,1.6,southwest,3.0
2022/12/23,19:40,1.6,west-southwest,4.9
2022/12/23,19:50,1.5,west-southwest,5.5
2022/12/23,20:00,1.5,west-southwest,5.5
2022/12/23,20:10,1.6,west-southwest,5.2
2022/12/23,20:20,1.6,west-southwest,4.1
2022/12/23,20:30,1.5,south-southwest,4.7
2022/12/23,20:40,1.6,southwest,3.2
2022/12/23,20:50,1.6,southwest,1.9
2022/12/23,21:00,1.6,west-southwest,2.2
2022/12/23,21:10,1.6,west,3.2
2022/12/23,21:20,1.5,west-northwest,1.2
2022/12/23,21:30,1.5,-,CALM
2022/12/23,21:40,1.5,-,CALM
2022/12/23,21:50,1.6,southwest,2.2
2022/12/23,22:00,1.5,south-southwest,3.1
2022/12/23,22:10,1.4,southwest,3.9
2022/12/23,22:20,1.6,southwest,5.8
2022/12/23,22:30,1.5,southwest,3.9
2022/12/23,22:40,1.5,west,4.4
2022/12/23,22:50,1.5,southwest,4.1
2022/12/23,23:00,1.5,west-southwest,3.5
2022/12/23,23:10,1.5,west-southwest,2.5
2022/12/23,23:20,1.5,southwest,2.7
2022/12/23,23:30,1.5,west-southwest,2.6
2022/12/23,23:40,1.5,southwest,4.4
2022/12/23,23:50,1.5,south-southwest,3.9
